Time,TemperatureF,DewpointF,PressureIn,WindDirection,WindDirectionDegrees,WindSpeedMPH,WindSpeedGustMPH,Humidity,HourlyPrecipIn,Conditions,Clouds,dailyrainin,SoftwareType,DateUTC
2013-02-24 00:01:00,28.0,21.0,-100.00,WSW,250,5.0,10.0,76,0.00,,,-99.99,,2013-02-24 05:01:00,
2013-02-24 00:11:00,28.0,21.0,-100.00,West,270,5.0,12.0,75,0.00,,,-99.99,,2013-02-24 05:11:00,
2013-02-24 00:22:00,28.0,21.0,-100.00,West,280,3.0,9.0,76,0.00,,,-99.99,,2013-02-24 05:22:00,
2013-02-24 00:32:00,28.0,21.0,-100.00,NW,305,4.0,10.0,76,0.00,,,-99.99,,2013-02-24 05:32:00,
2013-02-24 00:42:00,27.0,21.0,-100.00,WNW,290,4.0,11.0,76,0.00,,,-99.99,,2013-02-24 05:42:00,
2013-02-24 00:52:00,27.0,21.0,-100.00,West,275,4.0,9.0,77,0.00,,,-99.99,,2013-02-24 05:52:00,
2013-02-24 01:02:00,27.0,21.0,-100.00,WNW,285,4.0,8.0,77,0.00,,,-99.99,,2013-02-24 06:02:00,
2013-02-24 01:11:00,27.0,21.0,-100.00,West,280,3.0,12.0,77,0.00,,,-99.99,,2013-02-24 06:11:00,
2013-02-24 01:21:00,27.0,21.0,-100.00,WNW,295,5.0,10.0,77,0.00,,,-99.99,,2013-02-24 06:21:00,
2013-02-24 01:32:00,27.0,21.0,-100.00,NNW,335,4.0,10.0,78,0.00,,,-99.99,,2013-02-24 06:32:00,
2013-02-24 01:42:00,27.0,21.0,-100.00,WSW,250,3.0,11.0,77,0.00,,,-99.99,,2013-02-24 06:42:00,
2013-02-24 01:52:00,27.0,21.0,-100.00,West,265,6.0,11.0,78,0.00,,,-99.99,,2013-02-24 06:52:00,
2013-02-24 02:01:00,27.0,21.0,-100.00,West,275,3.0,9.0,78,0.00,,,-99.99,,2013-02-24 07:01:00,
2013-02-24 02:12:00,27.0,21.0,-100.00,West,270,6.0,9.0,79,0.00,,,-99.99,,2013-02-24 07:12:00,
2013-02-24 02:21:00,26.0,21.0,-100.00,WNW,295,6.0,10.0,78,0.00,,,-99.99,,2013-02-24 07:21:00,
2013-02-24 02:32:00,26.0,21.0,-100.00,NW,310,2.0,8.0,79,0.00,,,-99.99,,2013-02-24 07:32:00,
2013-02-24 02:42:00,26.0,21.0,-100.00,West,270,3.0,9.0,79,0.00,,,-99.99,,2013-02-24 07:42:00,
2013-02-24 02:51:00,26.0,21.0,-100.00,WNW,300,4.0,9.0,79,0.00,,,-99.99,,2013-02-24 07:51:00,
2013-02-24 03:01:00,26.0,21.0,-100.00,WNW,285,4.0,9.0,80,0.00,,,-99.99,,2013-02-24 08:01:00,
2013-02-24 03:11:00,26.0,21.0,-100.00,WNW,295,4.0,11.0,80,0.00,,,-99.99,,2013-02-24 08:11:00,
2013-02-24 03:22:00,26.0,21.0,-100.00,WNW,295,5.0,9.0,80,0.00,,,-99.99,,2013-02-24 08:22:00,
2013-02-24 03:32:00,26.0,21.0,-100.00,WNW,300,4.0,9.0,80,0.00,,,-99.99,,2013-02-24 08:32:00,
2013-02-24 03:42:00,26.0,21.0,-100.00,WNW,300,5.0,12.0,80,0.00,,,-99.99,,2013-02-24 08:42:00,
2013-02-24 03:53:00,26.0,20.0,-100.00,West,280,6.0,9.0,80,0.00,,,-99.99,,2013-02-24 08:53:00,
2013-02-24 04:01:00,26.0,20.0,-100.00,West,280,6.0,10.0,79,0.00,,,-99.99,,2013-02-24 09:01:00,
2013-02-24 04:11:00,26.0,21.0,-100.00,West,270,4.0,9.0,80,0.00,,,-99.99,,2013-02-24 09:11:00,
2013-02-24 04:21:00,26.0,20.0,-100.00,West,280,5.0,11.0,79,0.00,,,-99.99,,2013-02-24 09:21:00,
2013-02-24 04:32:00,26.0,20.0,-100.00,West,280,3.0,9.0,79,0.00,,,-99.99,,2013-02-24 09:32:00,
2013-02-24 04:42:00,26.0,20.0,-100.00,WNW,290,4.0,9.0,80,0.00,,,-99.99,,2013-02-24 09:42:00,
2013-02-24 04:51:00,26.0,20.0,-100.00,WNW,300,5.0,9.0,79,0.00,,,-99.99,,2013-02-24 09:51:00,
2013-02-24 05:01:00,26.0,20.0,-100.00,WNW,285,7.0,11.0,79,0.00,,,-99.99,,2013-02-24 10:01:00,
2013-02-24 05:11:00,26.0,20.0,-100.00,WSW,255,5.0,11.0,78,0.00,,,-99.99,,2013-02-24 10:11:00,
2013-02-24 05:21:00,26.0,20.0,-100.00,West,270,5.0,13.0,76,0.00,,,-99.99,,2013-02-24 10:21:00,
2013-02-24 05:32:00,26.0,19.0,-100.00,West,280,4.0,10.0,75,0.00,,,-99.99,,2013-02-24 10:32:00,
2013-02-24 05:41:00,26.0,19.0,-100.00,WNW,285,5.0,10.0,75,0.00,,,-99.99,,2013-02-24 10:41:00,
2013-02-24 05:51:00,26.0,19.0,-100.00,West,275,3.0,7.0,75,0.00,,,-99.99,,2013-02-24 10:51:00,
2013-02-24 06:01:00,26.0,19.0,-100.00,West,270,3.0,11.0,75,0.00,,,-99.99,,2013-02-24 11:01:00,
2013-02-24 06:11:00,26.0,20.0,-100.00,WNW,285,2.0,6.0,75,0.00,,,-99.99,,2013-02-24 11:11:00,
2013-02-24 06:21:00,26.0,19.0,-100.00,West,270,4.0,9.0,74,0.00,,,-99.99,,2013-02-24 11:21:00,
2013-02-24 06:32:00,26.0,19.0,-100.00,West,280,3.0,7.0,74,0.00,,,-99.99,,2013-02-24 11:32:00,
2013-02-24 06:41:00,26.0,19.0,-100.00,West,275,4.0,8.0,73,0.00,,,-99.99,,2013-02-24 11:41:00,
2013-02-24 06:52:00,26.0,19.0,-100.00,West,270,2.0,7.0,73,0.00,,,-99.99,,2013-02-24 11:52:00,
2013-02-24 07:02:00,26.0,19.0,-100.00,West,275,2.0,6.0,74,0.00,,,-99.99,,2013-02-24 12:02:00,
2013-02-24 07:11:00,26.0,19.0,-100.00,West,275,2.0,6.0,74,0.00,,,-99.99,,2013-02-24 12:11:00,
2013-02-24 07:22:00,27.0,19.0,-100.00,WSW,245,2.0,6.0,74,0.00,,,-99.99,,2013-02-24 12:22:00,
2013-02-24 07:32:00,27.0,20.0,-100.00,West,270,2.0,5.0,74,0.00,,,-99.99,,2013-02-24 12:32:00,
2013-02-24 07:46:00,27.0,20.0,-100.00,West,270,3.0,6.0,74,0.00,,,-99.99,,2013-02-24 12:46:00,
2013-02-24 07:58:00,27.0,20.0,-100.00,West,270,2.0,6.0,74,0.00,,,-99.99,,2013-02-24 12:58:00,
2013-02-24 08:14:00,27.0,20.0,-100.00,West,260,2.0,6.0,74,0.00,,,-99.99,,2013-02-24 13:14:00,
2013-02-24 08:26:00,27.0,19.0,-100.00,West,270,6.0,11.0,71,0.00,,,-99.99,,2013-02-24 13:26:00,
2013-02-24 08:44:00,27.0,20.0,-100.00,West,275,5.0,11.0,73,0.00,,,-99.99,,2013-02-24 13:44:00,
2013-02-24 08:53:00,27.0,19.0,-100.00,WNW,290,6.0,11.0,71,0.00,,,-99.99,,2013-02-24 13:53:00,
2013-02-24 09:05:00,28.0,19.0,-100.00,West,275,4.0,9.0,71,0.00,,,-99.99,,2013-02-24 14:05:00,
2013-02-24 09:14:00,28.0,19.0,-100.00,West,270,6.0,11.0,68,0.00,,,-99.99,,2013-02-24 14:14:00,
2013-02-24 09:25:00,28.0,19.0,-100.00,West,265,5.0,11.0,69,0.00,,,-99.99,,2013-02-24 14:25:00,
2013-02-24 09:34:00,28.0,20.0,-100.00,WSW,245,6.0,9.0,70,0.00,,,-99.99,,2013-02-24 14:34:00,
2013-02-24 09:44:00,28.0,20.0,-100.00,SW,235,4.0,10.0,71,0.00,,,-99.99,,2013-02-24 14:44:00,
2013-02-24 09:53:00,28.0,20.0,-100.00,WSW,250,6.0,12.0,71,0.00,,,-99.99,,2013-02-24 14:53:00,
2013-02-24 10:03:00,28.0,20.0,-100.00,WSW,245,5.0,9.0,71,0.00,,,-99.99,,2013-02-24 15:03:00,
2013-02-24 10:13:00,28.0,20.0,-100.00,SW,235,6.0,11.0,72,0.00,,,-99.99,,2013-02-24 15:13:00,
2013-02-24 10:23:00,28.0,21.0,-100.00,WSW,245,4.0,10.0,74,0.00,,,-99.99,,2013-02-24 15:23:00,
2013-02-24 10:32:00,29.0,21.0,-100.00,WSW,245,2.0,8.0,72,0.00,,,-99.99,,2013-02-24 15:32:00,
2013-02-24 10:42:00,29.0,20.0,-100.00,SW,235,6.0,11.0,67,0.00,,,-99.99,,2013-02-24 15:42:00,
2013-02-24 10:52:00,31.0,22.0,-100.00,WSW,250,4.0,11.0,66,0.00,,,-99.99,,2013-02-24 15:52:00,
2013-02-24 11:01:00,31.0,21.0,-100.00,WSW,250,7.0,12.0,65,0.00,,,-99.99,,2013-02-24 16:01:00,
2013-02-24 11:11:00,31.0,21.0,-100.00,West,280,6.0,12.0,65,0.00,,,-99.99,,2013-02-24 16:11:00,
2013-02-24 11:21:00,31.0,22.0,-100.00,SW,235,6.0,12.0,69,0.00,,,-99.99,,2013-02-24 16:21:00,
2013-02-24 11:32:00,31.0,22.0,-100.00,WSW,250,4.0,12.0,68,0.00,,,-99.99,,2013-02-24 16:32:00,
2013-02-24 11:42:00,31.0,22.0,-100.00,West,275,5.0,12.0,68,0.00,,,-99.99,,2013-02-24 16:42:00,
2013-02-24 11:52:00,31.0,21.0,-100.00,West,280,5.0,12.0,65,0.00,,,-99.99,,2013-02-24 16:52:00,
2013-02-24 12:01:00,32.0,22.0,-100.00,West,275,4.0,12.0,66,0.00,,,-99.99,,2013-02-24 17:01:00,
2013-02-24 12:11:00,33.0,22.0,-100.00,WSW,240,9.0,13.0,64,0.00,,,-99.99,,2013-02-24 17:11:00,
2013-02-24 12:21:00,33.0,22.0,-100.00,West,280,6.0,15.0,64,0.00,,,-99.99,,2013-02-24 17:21:00,
2013-02-24 12:32:00,33.0,22.0,-100.00,WNW,285,4.0,13.0,62,0.00,,,-99.99,,2013-02-24 17:32:00,
2013-02-24 12:42:00,35.0,22.0,-100.00,WSW,255,4.0,12.0,59,0.00,,,-99.99,,2013-02-24 17:42:00,
2013-02-24 12:52:00,35.0,22.0,-100.00,WSW,240,6.0,12.0,59,0.00,,,-99.99,,2013-02-24 17:52:00,
2013-02-24 13:02:00,35.0,22.0,-100.00,WSW,240,6.0,12.0,59,0.00,,,-99.99,,2013-02-24 18:02:00,
2013-02-24 13:11:00,35.0,21.0,-100.00,West,265,6.0,11.0,56,0.00,,,-99.99,,2013-02-24 18:11:00,
2013-02-24 13:22:00,35.0,21.0,-100.00,West,265,6.0,11.0,58,0.00,,,-99.99,,2013-02-24 18:22:00,
2013-02-24 13:32:00,36.0,22.0,-100.00,West,265,4.0,10.0,55,0.00,,,-99.99,,2013-02-24 18:32:00,
2013-02-24 13:42:00,35.0,20.0,-100.00,West,275,5.0,11.0,55,0.00,,,-99.99,,2013-02-24 18:42:00,
2013-02-24 13:52:00,36.0,21.0,-100.00,West,270,3.0,9.0,53,0.00,,,-99.99,,2013-02-24 18:52:00,
2013-02-24 14:01:00,35.0,20.0,-100.00,West,280,6.0,12.0,53,0.00,,,-99.99,,2013-02-24 19:01:00,
2013-02-24 14:11:00,37.0,20.0,-100.00,West,280,6.0,14.0,51,0.00,,,-99.99,,2013-02-24 19:11:00,
2013-02-24 14:22:00,36.0,21.0,-100.00,WNW,300,5.0,11.0,53,0.00,,,-99.99,,2013-02-24 19:22:00,
2013-02-24 14:32:00,36.0,20.0,-100.00,WNW,295,3.0,8.0,52,0.00,,,-99.99,,2013-02-24 19:32:00,
2013-02-24 14:42:00,35.0,20.0,-100.00,NNW,345,4.0,9.0,54,0.00,,,-99.99,,2013-02-24 19:42:00,
2013-02-24 14:52:00,38.0,22.0,-100.00,WNW,285,4.0,9.0,50,0.00,,,-99.99,,2013-02-24 19:52:00,
2013-02-24 15:02:00,36.0,20.0,-100.00,WNW,285,3.0,9.0,52,0.00,,,-99.99,,2013-02-24 20:02:00,
2013-02-24 15:11:00,37.0,20.0,-100.00,West,260,6.0,7.0,50,0.00,,,-99.99,,2013-02-24 20:11:00,
2013-02-24 15:21:00,39.0,21.0,-100.00,NW,325,4.0,9.0,47,0.00,,,-99.99,,2013-02-24 20:21:00,
2013-02-24 15:32:00,38.0,21.0,-100.00,WNW,300,4.0,10.0,49,0.00,,,-99.99,,2013-02-24 20:32:00,
2013-02-24 15:42:00,37.0,20.0,-100.00,WNW,290,5.0,9.0,51,0.00,,,-99.99,,2013-02-24 20:42:00,
2013-02-24 15:52:00,39.0,20.0,-100.00,West,275,2.0,8.0,46,0.00,,,-99.99,,2013-02-24 20:52:00,
2013-02-24 16:02:00,38.0,21.0,-100.00,NNW,330,3.0,9.0,49,0.00,,,-99.99,,2013-02-24 21:02:00,
2013-02-24 16:11:00,39.0,21.0,-100.00,West,275,5.0,9.0,47,0.00,,,-99.99,,2013-02-24 21:11:00,
2013-02-24 16:21:00,38.0,21.0,-100.00,WNW,300,2.0,9.0,51,0.00,,,-99.99,,2013-02-24 21:21:00,
2013-02-24 16:32:00,37.0,21.0,-100.00,West,270,4.0,9.0,51,0.00,,,-99.99,,2013-02-24 21:32:00,
2013-02-24 16:42:00,37.0,21.0,-100.00,WNW,290,3.0,8.0,51,0.00,,,-99.99,,2013-02-24 21:42:00,
2013-02-24 16:52:00,38.0,20.0,-100.00,WNW,290,4.0,8.0,49,0.00,,,-99.99,,2013-02-24 21:52:00,
2013-02-24 17:01:00,38.0,21.0,-100.00,North,350,4.0,8.0,49,0.00,,,-99.99,,2013-02-24 22:01:00,
2013-02-24 17:11:00,36.0,21.0,-100.00,West,280,4.0,8.0,53,0.00,,,-99.99,,2013-02-24 22:11:00,
2013-02-24 17:21:00,36.0,21.0,-100.00,West,275,3.0,7.0,54,0.00,,,-99.99,,2013-02-24 22:21:00,
2013-02-24 17:32:00,36.0,21.0,-100.00,West,275,2.0,7.0,55,0.00,,,-99.99,,2013-02-24 22:32:00,
2013-02-24 17:41:00,36.0,21.0,-100.00,West,260,3.0,7.0,54,0.00,,,-99.99,,2013-02-24 22:41:00,
2013-02-24 17:52:00,36.0,21.0,-100.00,West,275,4.0,6.0,55,0.00,,,-99.99,,2013-02-24 22:52:00,
2013-02-24 18:02:00,36.0,22.0,-100.00,NW,305,2.0,6.0,55,0.00,,,-99.99,,2013-02-24 23:02:00,
2013-02-24 18:11:00,36.0,22.0,-100.00,WNW,300,1.0,6.0,56,0.00,,,-99.99,,2013-02-24 23:11:00,
2013-02-24 18:21:00,35.0,22.0,-100.00,West,265,2.0,6.0,56,0.00,,,-99.99,,2013-02-24 23:21:00,
2013-02-24 18:32:00,35.0,22.0,-100.00,WNW,300,1.0,3.0,58,0.00,,,-99.99,,2013-02-24 23:32:00,
2013-02-24 18:42:00,34.0,22.0,-100.00,WNW,290,1.0,3.0,60,0.00,,,-99.99,,2013-02-24 23:42:00,
2013-02-24 18:52:00,33.0,22.0,-100.00,WNW,290,0.0,1.0,62,0.00,,,-99.99,,2013-02-24 23:52:00,
2013-02-24 19:01:00,33.0,22.0,-100.00,WNW,290,0.0,1.0,64,0.00,,,-99.99,,2013-02-25 00:01:00,
2013-02-24 19:11:00,33.0,22.0,-100.00,WNW,290,0.0,0.0,64,0.00,,,-99.99,,2013-02-25 00:11:00,
2013-02-24 19:21:00,32.0,22.0,-100.00,WNW,290,0.0,0.0,65,0.00,,,-99.99,,2013-02-25 00:21:00,
2013-02-24 19:32:00,32.0,22.0,-100.00,WNW,290,0.0,0.0,66,0.00,,,-99.99,,2013-02-25 00:32:00,
2013-02-24 19:42:00,31.0,22.0,-100.00,WNW,290,0.0,0.0,67,0.00,,,-99.99,,2013-02-25 00:42:00,
2013-02-24 19:52:00,31.0,22.0,-100.00,NNE,20,1.0,3.0,68,0.00,,,-99.99,,2013-02-25 00:52:00,
2013-02-24 20:01:00,31.0,22.0,-100.00,North,0,0.0,1.0,67,0.00,,,-99.99,,2013-02-25 01:01:00,
2013-02-24 20:11:00,31.0,22.0,-100.00,North,5,0.0,2.0,68,0.00,,,-99.99,,2013-02-25 01:11:00,
2013-02-24 20:21:00,31.0,22.0,-100.00,North,5,1.0,3.0,69,0.00,,,-99.99,,2013-02-25 01:21:00,
2013-02-24 20:32:00,30.0,22.0,-100.00,North,355,0.0,1.0,71,0.00,,,-99.99,,2013-02-25 01:32:00,
2013-02-24 20:42:00,30.0,22.0,-100.00,North,0,0.0,0.0,72,0.00,,,-99.99,,2013-02-25 01:42:00,
2013-02-24 20:52:00,30.0,23.0,-100.00,North,0,0.0,3.0,72,0.00,,,-99.99,,2013-02-25 01:52:00,
2013-02-24 21:01:00,30.0,22.0,-100.00,North,0,2.0,3.0,73,0.00,,,-99.99,,2013-02-25 02:01:00,
2013-02-24 21:11:00,30.0,22.0,-100.00,NNE,20,1.0,3.0,72,0.00,,,-99.99,,2013-02-25 02:11:00,
2013-02-24 21:21:00,29.0,23.0,-100.00,East,95,0.0,1.0,76,0.00,,,-99.99,,2013-02-25 02:21:00,
2013-02-24 21:32:00,28.0,22.0,-100.00,NE,45,0.0,1.0,76,0.00,,,-99.99,,2013-02-25 02:32:00,
2013-02-24 21:41:00,28.0,22.0,-100.00,NE,45,0.0,0.0,77,0.00,,,-99.99,,2013-02-25 02:41:00,
2013-02-24 21:52:00,28.0,22.0,-100.00,NE,45,0.0,0.0,77,0.00,,,-99.99,,2013-02-25 02:52:00,
2013-02-24 22:01:00,28.0,22.0,-100.00,NE,45,0.0,0.0,77,0.00,,,-99.99,,2013-02-25 03:01:00,
2013-02-24 22:11:00,28.0,22.0,-100.00,NE,45,0.0,0.0,77,0.00,,,-99.99,,2013-02-25 03:11:00,
2013-02-24 22:21:00,28.0,22.0,-100.00,NE,45,0.0,0.0,77,0.00,,,-99.99,,2013-02-25 03:21:00,
2013-02-24 23:22:00,28.0,23.0,-100.00,NNE,25,0.0,2.0,84,0.00,,,-99.99,,2013-02-25 04:22:00,
2013-02-24 23:32:00,27.0,23.0,-100.00,East,95,0.0,0.0,84,0.00,,,-99.99,,2013-02-25 04:32:00,
2013-02-24 23:42:00,27.0,23.0,-100.00,North,10,0.0,1.0,84,0.00,,,-99.99,,2013-02-25 04:42:00,
2013-02-24 23:52:00,28.0,23.0,-100.00,NNE,30,0.0,1.0,84,0.00,,,-99.99,,2013-02-25 04:52:00,